Home > Weather > Cranbrook > Past weeks

Flag for Canada Past Weather in Cranbrook, British Columbia, Canada — Yesterday and Last 2 Weeks

Now
73 °F

Mostly cloudy.


Feels Like: 77 °F
Forecast: 55 / 80 °F
Wind: 17 mph from Southwest

Location: Cranbrook

Current Time: Aug 27, 2016 at 2:46:03 PM

Latest Report: Aug 27, 2016 at 2:00 PM


Visibility: 25 mi

Pressure: 29.64 "Hg (26.61 "Hg at 933m altitude)

Humidity: 33%

Dew Point: 43 °F

Location of CranbrookLocation

Past Weather in Cranbrook — Graph

°F

Cranbrook Temperature Yesterday

Maximum temperature yesterday: 77 °F (at 5:00 PM)
Minimum temperature yesterday: 46 °F (at 6:00 AM)
Average temperature yesterday: 61 °F

High & Low Weather Summary for the Past Weeks

 TemperatureHumidityPressure
High90 °F (Aug 16, 5:00 PM)100% (Aug 19, 12:00 AM)30.38 "Hg (Aug 19, 12:00 AM)
Low43 °F (Aug 19, 4:00 AM)13% (Aug 21, 3:00 PM)29.49 "Hg (Aug 22, 1:00 AM)
Average66 °F50%30.01 "Hg
* Reported Aug 12 1:00 PM — Aug 27 1:00 PM, Cranbrook, Weather by CustomWeather, © 2016

Note: Actual official high and low records may vary slightly from our data, if they occured in-between our weather recording intervals... More about our weather records

Advertising

Cranbrook Weather History for the Previous 24 Hours

Scroll right to see more
 ConditionsComfort  
Time TempWeatherWind HumidityBarometerVisibility
1:00 PM
Sat, Aug 27
73 °FMostly cloudy.10 mph33%29.64 "Hg25 mi
12:00 PM73 °FBroken clouds.13 mph33%29.65 "Hg25 mi
11:00 AM72 °FBroken clouds.16 mph36%29.66 "Hg25 mi
10:00 AM70 °FPartly sunny.9 mph38%29.67 "Hg25 mi
9:00 AM63 °FPartly sunny.No wind52%29.69 "Hg25 mi
8:00 AM57 °FPassing clouds.5 mph63%29.71 "Hg25 mi
7:00 AM57 °FPassing clouds.3 mph63%29.70 "Hg25 mi
6:00 AM55 °FPassing clouds.2 mph72%29.71 "Hg25 mi
5:00 AM59 °FPassing clouds.5 mph63%29.72 "Hg25 mi
4:00 AM63 °FPassing clouds.5 mph56%29.73 "Hg25 mi
3:00 AM61 °FPassing clouds.5 mph55%29.74 "Hg25 mi
2:00 AM64 °FOvercast.No wind49%29.76 "Hg25 mi
1:00 AM64 °FOvercast.2 mph49%29.78 "Hg25 mi
12:00 AM68 °FPartly cloudy.3 mph43%29.79 "Hg25 mi
11:00 PM
Fri, Aug 26
70 °FMostly cloudy.5 mph38%29.80 "Hg25 mi
10:00 PM70 °FMostly cloudy.6 mph38%29.82 "Hg25 mi
9:00 PM72 °FMostly cloudy.6 mph33%29.82 "Hg25 mi
8:00 PM73 °FMore clouds than sun.No wind31%29.83 "Hg25 mi
7:00 PM75 °FPartly sunny.10 mph31%29.83 "Hg25 mi
6:00 PM77 °FBroken clouds.9 mph30%29.85 "Hg25 mi
5:00 PM77 °FBroken clouds.9 mph32%29.87 "Hg25 mi
4:00 PM75 °FBroken clouds.9 mph34%29.90 "Hg25 mi
3:00 PM75 °FScattered clouds.10 mph34%29.93 "Hg25 mi
2:00 PM72 °FScattered clouds.9 mph38%29.97 "Hg25 mi
Weather by CustomWeather, © 2016

See weather overviewHow to use our weather pages